Home > Weather > Atascadero > Past weeks

Flag for USA Past Weather in Atascadero, California, USA — Yesterday and Last 2 Weeks

Now
94 °F

Sunny.


Feels Like: 89 °F
Forecast: 54 / 81 °F
Wind: 16 mph from Southwest

Location: Paso Robles Municipal Airport

Current Time: Jun 30, 2016 at 4:03:40 PM

Latest Report: Jun 30, 2016 at 2:53 PM


Visibility: 10 mi

Pressure: 29.79 "Hg

Humidity: 13%

Dew Point: 36 °F

Location of AtascaderoLocation

Past Weather in Atascadero — Graph

°F

Atascadero Temperature Yesterday

Maximum temperature yesterday: 104 °F (at 2:53 PM)
Minimum temperature yesterday: 60 °F (at 11:53 PM)
Average temperature yesterday: 79 °F

High & Low Weather Summary for the Past Weeks

 TemperatureHumidityPressure
High109 °F (Jun 27, 4:53 PM)96% (Jun 30, 6:00 AM)30.14 "Hg (Jun 30, 6:00 AM)
Low43 °F (Jun 16, 5:53 AM)4% (Jun 24, 2:53 PM)29.80 "Hg (Jun 30, 1:53 PM)
Average76 °F37%29.96 "Hg
* Reported Jun 15 1:53 PM — Jun 30 1:53 PM, Atascadero, Weather by CustomWeather, © 2016

Note: Actual official high and low records may vary slightly from our data, if they occured in-between our weather recording intervals... More about our weather records

Advertising

Atascadero Weather History for the Previous 24 Hours

Scroll right to see more
 ConditionsComfort  
Time TempWeatherWind HumidityBarometerVisibility
1:53 PM
Thu, Jun 30
96 °FSunny.14 mph13%29.80 "Hg10 mi
12:53 PM93 °FSunny.3 mph16%29.83 "Hg10 mi
11:53 AM85 °FSunny.6 mph26%29.85 "Hg10 mi
10:53 AM77 °FSunny.6 mph37%29.87 "Hg10 mi
9:53 AM66 °FSunny.3 mph56%29.89 "Hg10 mi
8:53 AM59 °FSunny.3 mph72%29.90 "Hg10 mi
7:53 AM53 °FLow clouds.6 mph89%29.90 "Hg10 mi
7:03 AM51 °FFog.3 mph96%29.92 "Hg1 mi
6:00 AM50 °FFog.5 mph96%29.91 "Hg3 mi
4:53 AM50 °FClear.6 mph89%29.88 "Hg10 mi
3:53 AM51 °FClear.3 mph89%29.88 "Hg10 mi
2:53 AM53 °FClear.3 mph83%29.88 "Hg10 mi
1:53 AM55 °FClear.6 mph80%29.88 "Hg10 mi
12:53 AM58 °FClear.7 mph72%29.88 "Hg10 mi
11:53 PM
Wed, Jun 29
60 °FClear.6 mph67%29.89 "Hg10 mi
10:53 PM63 °FClear.6 mph60%29.88 "Hg10 mi
9:53 PM69 °FClear.12 mph49%29.87 "Hg10 mi
8:53 PM75 °FSunny.16 mph37%29.86 "Hg10 mi
7:53 PM81 °FSunny.18 mph25%29.84 "Hg10 mi
6:53 PM89 °FSunny.17 mph15%29.83 "Hg10 mi
5:53 PM96 °FSunny.16 mph9%29.82 "Hg10 mi
4:53 PM100 °FSunny.17 mph8%29.82 "Hg10 mi
Weather by CustomWeather, © 2016

See weather overviewHow to use our weather pages